Flag for Russia Weather past 2 weeks in Voronezh, Russia

Now
59 °F

Sprinkles. Overcast.


Feels Like: 60 °F
Forecast: 54 / 77 °F
Wind: 3 mph from North

Location: Voronez

Current Time: Aug 1, 2015 at 9:01:39 AM

Latest Report: Aug 1, 2015 at 8:00 AM


Visibility: N/A

Pressure: 29.89 "Hg

Humidity: 94%

Dew point: 57 °F

Location of VoronezhLocation

Historic Weather in Voronezh — Graph

°F

Voronezh temperature yesterday

Maximum temperature yesterday: 81 °F (at 1:00 PM)
Minimum temperature yesterday: 66 °F (at 2:00 AM)
Average temperature yesterday: 72 °F

Past Weeks' High & Low Weather Summary

 TemperatureHumidityPressure
High95 °F (Jul 27, 3:00 PM)94% (Jul 18, 1:00 AM)30.01 "Hg (Jul 18, 1:00 AM)
Low50 °F (Jul 19, 4:30 AM)28% (Jul 27, 3:00 PM)29.62 "Hg (Jul 20, 4:30 PM)
Average70 °F64%29.86 "Hg
* Reported Jul 17 7:30 AM — Aug 1 7:30 AM, Voronezh, Weather by CustomWeather, © 2015

Note: Actual official high and low records may vary slightly from our data, if they occured in-between our weather recording intervals... More about our weather records

Advertising

Voronezh weather history for previous 24 hours

 ConditionsComfort  
Time TempWeatherWind HumidityBarometerVisibility
7:30 AM
Sat, Aug 1
59 °FSprinkles. Overcast.1 mph94%29.89 "HgN/A
7:00 AM59 °FThunderstorms. Overcast.3 mph94%29.89 "HgN/A
6:00 AM61 °FOvercast.3 mph88%29.89 "HgN/A
5:30 AM61 °FSprinkles. Passing clouds.3 mph94%29.89 "Hg6 mi
5:00 AM63 °FSprinkles. Passing clouds.6 mph83%29.89 "HgN/A
4:30 AM63 °FSprinkles. Passing clouds.6 mph88%29.89 "HgN/A
4:00 AM63 °FSprinkles. Passing clouds.8 mph88%29.92 "HgN/A
3:30 AM63 °FSprinkles. Passing clouds.8 mph88%29.89 "HgN/A
3:00 AM63 °FSprinkles. Passing clouds.No wind88%29.89 "HgN/A
2:30 AM63 °FSprinkles. Passing clouds.3 mph88%29.89 "HgN/A
2:00 AM63 °FSprinkles. Passing clouds.1 mph94%29.89 "HgN/A
1:30 AM63 °FSprinkles. Passing clouds.No wind94%29.89 "HgN/A
1:00 AM63 °FSprinkles. Passing clouds.1 mph94%29.89 "HgN/A
12:30 AM64 °FSprinkles. Overcast.No wind83%29.89 "Hg6 mi
12:00 AM64 °FSprinkles. Overcast.1 mph94%29.89 "HgN/A
11:30 PM
Fri, Jul 31
66 °FSprinkles. Passing clouds.No wind88%29.89 "HgN/A
11:00 PM66 °FSprinkles. Passing clouds.No wind88%29.89 "HgN/A
10:30 PM66 °FSprinkles. Passing clouds.No wind88%29.92 "HgN/A
10:00 PM66 °FSprinkles. Passing clouds.No wind94%29.92 "HgN/A
9:30 PM68 °FSprinkles. Passing clouds.No wind88%29.92 "HgN/A
9:00 PM68 °FSprinkles. Partly sunny.1 mph88%29.92 "HgN/A
8:30 PM68 °FSprinkles. Partly sunny.No wind88%29.92 "HgN/A
8:00 PM70 °FSprinkles. Partly sunny.No wind78%29.92 "HgN/A
7:30 PM72 °FPartly sunny.No wind78%29.92 "HgN/A
7:00 PM72 °FPartly sunny.No wind78%29.89 "HgN/A
6:30 PM73 °FSprinkles. Partly sunny.No wind57%29.89 "HgN/A
6:00 PM73 °FSprinkles. Partly sunny.3 mph61%29.89 "HgN/A
5:30 PM77 °FSunny.3 mph44%29.89 "Hg10 mi
5:00 PM79 °FSunny.3 mph42%29.89 "Hg10 mi
4:30 PM79 °FPassing clouds.3 mph42%29.89 "HgN/A
4:00 PM79 °FSunny.8 mph42%29.89 "Hg10 mi
3:30 PM81 °FPassing clouds.6 mph37%29.89 "HgN/A
3:00 PM81 °FPassing clouds.3 mph37%29.89 "HgN/A
2:30 PM81 °FPassing clouds.8 mph39%29.89 "HgN/A
2:00 PM81 °FScattered clouds.1 mph39%29.89 "HgN/A
1:30 PM81 °FScattered clouds.10 mph39%29.89 "HgN/A
1:00 PM81 °FScattered clouds.6 mph42%29.89 "HgN/A
12:30 PM79 °FScattered clouds.8 mph45%29.89 "HgN/A
12:00 PM79 °FScattered clouds.6 mph54%29.89 "HgN/A
11:30 AM77 °FScattered clouds.8 mph57%29.89 "HgN/A
11:00 AM77 °FScattered clouds.6 mph61%29.89 "HgN/A
10:30 AM75 °FPartly sunny.No wind65%29.89 "HgN/A
10:00 AM75 °FPartly sunny.3 mph69%29.89 "HgN/A
9:30 AM73 °FPartly sunny.1 mph74%29.89 "HgN/A
9:00 AM72 °FPartly sunny.1 mph83%29.89 "HgN/A
Weather by CustomWeather, © 2015

See weather overviewHow to use our weather pages